CW3827 Weather Reports


Display with metric or nautical units.
time (UTC)temp
F
wind
direction
speed
MPH
gust
MPH
rain 1hr
in
rain 24hr
in
rain mn
in
humidity
%
barometer
mb
20260906033013 65 204 4.0 6.0 0.00 0.00 0.00 72 1023.2
20260906031508 66 271 4.0 6.0 0.00 0.00 0.00 67 1023.0
20260906030006 66 271 5.0 7.0 0.00 0.00 0.00 69 1023.0
20260906024527 66 264 6.0 9.0 0.00 0.00 0.00 71 1023.1
20260906023022 65 274 6.0 8.0 0.00 0.00 0.00 76 1022.9
20260906021519 66 246 5.0 7.0 0.00 0.00 0.00 77 1022.7
20260906020014 67 249 3.0 7.0 0.00 0.00 0.00 77 1022.6
20260906014518 69 246 5.0 8.0 0.00 0.00 0.00 74 1022.5
20260906013008 70 263 6.0 8.0 0.00 0.00 0.00 74 1022.6
20260906011527 72 208 4.0 4.0 0.00 0.00 0.00 69 1022.6
20260906010027 73 206 5.0 9.0 0.00 0.00 0.00 66 1022.5
20260906004519 73 225 6.0 9.0 0.00 0.00 0.00 65 1022.7
20260906003017 73 225 6.0 9.0 0.00 0.00 0.00 67 1022.9
20260906001513 75 160 4.0 8.0 0.00 0.00 0.00 59 1023.1
20260906000011 74 236 3.0 7.0 0.00 0.01 0.00 59 1022.8
20260905234531 73 320 8.0 16.0 0.00 0.04 0.00 61 1023.0
20260905233036 72 107 14.0 20.0 0.00 0.04 0.00 64 1023.2
20260905231533 74 353 14.0 18.0 0.00 0.04 0.00 59 1023.3
20260905230020 78 150 0.0 11.0 0.00 0.04 0.00 52 1023.5
20260905224518 78 52 0.0 2.0 0.00 0.04 0.00 51 1022.9
20260905223014 78 124 6.0 11.0 0.00 0.04 0.00 49 1022.8
20260905221536 78 46 8.0 13.0 0.00 0.04 0.00 50 1023.0
20260905220031 79 39 10.0 17.0 0.00 0.04 0.00 47 1023.1
20260905214504 77 81 12.0 17.0 0.00 0.04 0.00 53 1023.1
20260905213003 80 72 10.0 17.0 0.00 0.04 0.00 53 1023.1
20260905211527 79 74 8.0 15.0 0.00 0.04 0.00 46 1023.2
20260905210017 78 95 12.0 19.0 0.00 0.04 0.00 50 1023.3
20260905204509 78 89 13.0 20.0 0.00 0.04 0.00 52 1023.3
20260905203009 80 109 10.0 14.0 0.00 0.15 0.00 52 1023.4
20260905201506 80 105 12.0 16.0 0.00 0.15 0.00 52 1023.5
20260905200004 81 77 9.0 14.0 0.00 0.15 0.00 48 1023.6
20260905194525 82 118 7.0 10.0 0.00 0.15 0.00 47 1023.6
20260905193020 82 140 3.0 8.0 0.00 0.15 0.00 45 1023.7
20260905191518 83 135 6.0 10.0 0.00 0.15 0.00 43 1023.8
20260905190012 85 281 0.0 9.0 0.00 0.15 0.00 41 1024.2
20260905184514 84 155 6.0 19.0 0.00 0.15 0.00 42 1024.6
20260905183005 84 79 0.0 8.0 0.00 0.15 0.00 44 1024.6
20260905181527 81 127 4.0 6.0 0.00 0.15 0.00 45 1024.6
20260905180025 81 131 0.0 2.0 0.00 0.15 0.00 47 1024.7
20260905174519 80 115 3.0 9.0 0.00 0.15 0.00 48 1025.0
20260905173016 80 117 4.0 9.0 0.00 0.15 0.00 48 1025.2
20260905171518 80 103 3.0 9.0 0.00 0.15 0.00 50 1025.2
20260905170009 81 255 5.0 8.0 0.00 0.15 0.00 47 1025.0
20260905164530 79 153 4.0 8.0 0.00 0.15 0.00 49 1025.3
20260905163029 79 184 5.0 10.0 0.00 0.15 0.00 49 1025.2
20260905161527 78 200 6.0 11.0 0.00 0.15 0.00 52 1025.2
20260905160026 78 235 6.0 10.0 0.00 0.15 0.00 52 1025.2
20260905154514 78 236 3.0 7.0 0.00 0.15 0.00 52 1025.1
20260905153032 78 240 5.0 6.0 0.00 0.15 0.00 52 1025.1
20260905151533 77 210 0.0 2.0 0.00 0.15 0.00 53 1025.1
20260905150036 76 110 0.0 2.0 0.00 0.15 0.00 59 1025.0
20260905144527 73 110 2.0 5.0 0.00 0.15 0.00 66 1025.0
20260905143024 72 64 6.0 8.0 0.00 0.15 0.00 67 1025.0
20260905141520 72 49 7.0 8.0 0.00 0.15 0.00 71 1024.7
20260905140036 68 67 3.0 5.0 0.00 0.15 0.00 77 1024.6
20260905134542 66 68 5.0 6.0 0.00 0.15 0.00 81 1024.6
20260905133030 66 60 3.0 6.0 0.00 0.15 0.00 79 1024.3
20260905131533 66 89 3.0 6.0 0.00 0.15 0.00 77 1024.1
20260905130027 65 132 5.0 7.0 0.00 0.15 0.00 77 1024.0
20260905124526 65 114 5.0 7.0 0.00 0.15 0.00 78 1023.8
20260905123019 64 126 5.0 6.0 0.00 0.15 0.00 79 1023.6
20260905121516 64 120 6.0 7.0 0.00 0.15 0.00 79 1023.4
20260905120023 64 113 7.0 9.0 0.00 0.15 0.00 78 1023.4
20260905114510 63 96 7.0 8.0 0.00 0.15 0.00 81 1023.4
20260905113030 63 74 8.0 9.0 0.00 0.15 0.00 81 1023.4
20260905111529 62 81 6.0 9.0 0.00 0.15 0.00 81 1023.5
20260905110026 63 70 0.0 4.0 0.00 0.15 0.00 80 1023.5
20260905104520 63 135 5.0 6.0 0.00 0.15 0.00 78 1023.4
20260905103016 64 126 5.0 6.0 0.00 0.15 0.00 78 1023.3
20260905101512 63 131 6.0 8.0 0.00 0.15 0.00 79 1023.2
20260905100035 64 110 7.0 7.0 0.00 0.15 0.00 79 1023.1
20260905094527 63 115 5.0 8.0 0.00 0.15 0.00 79 1023.1
20260905093028 66 89 7.0 8.0 0.00 0.15 0.00 73 1022.9
20260905091524 64 94 7.0 8.0 0.00 0.15 0.00 78 1023.0
20260905090026 62 79 7.0 8.0 0.00 0.15 0.00 83 1023.0
20260905084515 64 68 5.0 6.0 0.00 0.15 0.00 78 1023.0
20260905083029 63 72 4.0 5.0 0.00 0.15 0.00 82 1023.1
20260905081533 64 64 7.0 9.0 0.00 0.15 0.00 80 1023.4
20260905080027 64 137 5.0 7.0 0.00 0.15 0.00 81 1023.4
20260905074528 64 74 5.0 9.0 0.00 0.15 0.00 80 1023.6
20260905073025 66 105 7.0 7.0 0.00 0.15 0.00 76 1023.6
20260905071520 66 103 5.0 6.0 0.00 0.15 0.00 78 1023.7
20260905070036 65 80 5.0 6.0 0.00 0.15 0.00 81 1023.7
20260905064504 66 84 5.0 6.0 0.00 0.15 0.00 79 1023.7
20260905063004 66 92 1.0 5.0 0.00 0.15 0.00 78 1023.6
20260905061504 63 79 5.0 8.0 0.00 0.15 0.00 84 1023.8
20260905060005 62 77 4.0 6.0 0.00 0.15 0.00 86 1023.7
20260905054506 64 33 3.0 4.0 0.00 0.15 0.15 80 1023.8
20260905053012 65 82 4.0 8.0 0.00 0.15 0.15 78 1023.7
20260905051507 65 92 5.0 6.0 0.00 0.15 0.15 77 1023.7
20260905050009 65 74 6.0 8.0 0.00 0.15 0.15 80 1023.6
20260905044512 64 65 5.0 9.0 0.00 0.15 0.15 81 1023.6
20260905043007 64 79 4.0 9.0 0.00 0.15 0.15 81 1023.6
20260905041510 66 112 6.0 8.0 0.00 0.15 0.15 77 1023.6
20260905040010 65 88 6.0 6.0 0.00 0.15 0.15 80 1023.6
20260905034515 65 102 5.0 6.0 0.00 0.15 0.15 81 1023.6